EN

Hourly Weather Adilabad

Today, 31 October, Saturday

Time Temperature Precipitation Wind Pressure Humidity
00:00 +22°C° 0 mm 0 mps 736 mmHg 61%
01:00 +24°C° 0 mm 1 mps 736 mmHg 62%
02:00 +23°C° 0 mm 1 mps 736 mmHg 64%
03:00 +23°C° 0 mm 1 mps 736 mmHg 63%
04:00 +22°C° 0 mm 1 mps 736 mmHg 63%
05:00 +22°C° 0 mm 1 mps 736 mmHg 64%
06:00 +23°C° 0 mm 1 mps 737 mmHg 61%
07:00 +25°C° 0 mm 1 mps 737 mmHg 59%
08:00 +26°C° 0 mm 1 mps 738 mmHg 57%
09:00 +27°C° 0 mm 2 mps 738 mmHg 53%
10:00 +29°C° 0 mm 2 mps 737 mmHg 50%
11:00 +30°C° 0 mm 3 mps 737 mmHg 46%
12:00 +30°C° 0 mm 3 mps 737 mmHg 45%
13:00 +31°C° 0 mm 3 mps 736 mmHg 44%
14:00 +31°C° 0 mm 3 mps 736 mmHg 43%
15:00 +29°C° 0 mm 3 mps 735 mmHg 48%
16:00 +28°C° 0 mm 2 mps 735 mmHg 53%
17:00 +27°C° 0 mm 2 mps 735 mmHg 58%
18:00 +26°C° 0 mm 1 mps 736 mmHg 58%
19:00 +25°C° 0 mm 1 mps 737 mmHg 58%
20:00 +22°C° 0 mm 0 mps 737 mmHg 58%
21:00 +22°C° 0 mm 0 mps 737 mmHg 57%
22:00 +21°C° 0 mm 0 mps 737 mmHg 56%
23:00 +21°C° 0 mm 0 mps 737 mmHg 55%

Tomorrow, 1 November, Sunday

Time Temperature Precipitation Wind Pressure Humidity
00:00 +23°C° 0 mm 1 mps 737 mmHg 56%
01:00 +22°C° 0 mm 1 mps 736 mmHg 57%
02:00 +22°C° 0 mm 1 mps 736 mmHg 57%
03:00 +22°C° 0 mm 1 mps 736 mmHg 59%
04:00 +21°C° 0 mm 1 mps 736 mmHg 60%
05:00 +21°C° 0 mm 1 mps 736 mmHg 61%
06:00 +22°C° 0 mm 1 mps 737 mmHg 60%
07:00 +24°C° 0 mm 1 mps 738 mmHg 59%
08:00 +25°C° 0 mm 2 mps 738 mmHg 57%
09:00 +26°C° 0 mm 2 mps 738 mmHg 54%
10:00 +28°C° 0 mm 3 mps 738 mmHg 50%
11:00 +30°C° 0 mm 3 mps 738 mmHg 46%
12:00 +30°C° 0 mm 3 mps 737 mmHg 45%
13:00 +30°C° 0 mm 3 mps 736 mmHg 44%
14:00 +31°C° 0 mm 3 mps 736 mmHg 43%
15:00 +29°C° 0 mm 3 mps 736 mmHg 48%
16:00 +28°C° 0 mm 2 mps 736 mmHg 53%
17:00 +26°C° 0 mm 2 mps 736 mmHg 58%
18:00 +26°C° 0 mm 1 mps 736 mmHg 58%
19:00 +25°C° 0 mm 1 mps 737 mmHg 59%
20:00 +22°C° 0 mm 0 mps 738 mmHg 59%
21:00 +22°C° 0 mm 0 mps 737 mmHg 58%
22:00 +24°C° 0 mm 1 mps 737 mmHg 58%
23:00 +23°C° 0 mm 1 mps 737 mmHg 57%

Day after tomorrow, 2 November, Monday

Time Temperature Precipitation Wind Pressure Humidity
00:00 +23°C° 0 mm 1 mps 737 mmHg 58%
01:00 +22°C° 0 mm 1 mps 737 mmHg 59%
02:00 +22°C° 0 mm 1 mps 736 mmHg 60%
03:00 +22°C° 0 mm 1 mps 736 mmHg 61%
04:00 +21°C° 0 mm 1 mps 737 mmHg 61%
05:00 +21°C° 0 mm 1 mps 737 mmHg 61%
06:00 +22°C° 0 mm 1 mps 737 mmHg 59%
07:00 +24°C° 0 mm 1 mps 738 mmHg 57%
08:00 +25°C° 0 mm 1 mps 739 mmHg 55%
09:00 +27°C° 0 mm 2 mps 738 mmHg 51%
10:00 +28°C° 0 mm 2 mps 738 mmHg 46%
11:00 +30°C° 0 mm 3 mps 738 mmHg 42%
12:00 +30°C° 0 mm 3 mps 738 mmHg 42%
13:00 +31°C° 0 mm 3 mps 737 mmHg 41%
14:00 +31°C° 0 mm 3 mps 736 mmHg 40%
15:00 +30°C° 0 mm 3 mps 736 mmHg 45%
16:00 +28°C° 0 mm 2 mps 736 mmHg 50%
17:00 +27°C° 0 mm 2 mps 737 mmHg 55%
18:00 +26°C° 0 mm 1 mps 737 mmHg 55%
19:00 +25°C° 0 mm 1 mps 738 mmHg 55%
20:00 +24°C° 0 mm 1 mps 738 mmHg 55%
21:00 +24°C° 0 mm 1 mps 738 mmHg 55%
22:00 +24°C° 0 mm 1 mps 738 mmHg 55%
23:00 +22°C° 0 mm 0 mps 738 mmHg 55%

3 November, Tuesday

Time Temperature Precipitation Wind Pressure Humidity
00:00 +23°C° 0 mm 1 mps 738 mmHg 56%
01:00 +23°C° 0 mm 1 mps 737 mmHg 57%
02:00 +22°C° 0 mm 1 mps 737 mmHg 57%
03:00 +22°C° 0 mm 1 mps 737 mmHg 58%
04:00 +22°C° 0 mm 1 mps 737 mmHg 59%
05:00 +21°C° 0 mm 1 mps 737 mmHg 59%
06:00 +23°C° 0 mm 1 mps 738 mmHg 57%
07:00 +24°C° 0 mm 1 mps 738 mmHg 55%
08:00 +25°C° 0 mm 2 mps 739 mmHg 53%
09:00 +27°C° 0 mm 2 mps 739 mmHg 51%
10:00 +28°C° 0 mm 2 mps 739 mmHg 49%
11:00 +29°C° 0 mm 2 mps 739 mmHg 47%
12:00 +30°C° 0 mm 2 mps 738 mmHg 47%
13:00 +31°C° 0 mm 2 mps 737 mmHg 46%
14:00 +31°C° 0 mm 2 mps 736 mmHg 46%
15:00 +30°C° 0 mm 2 mps 736 mmHg 51%
16:00 +29°C° 0 mm 2 mps 736 mmHg 56%
17:00 +27°C° 0 mm 1 mps 736 mmHg 61%
18:00 +26°C° 0 mm 1 mps 737 mmHg 63%
19:00 +26°C° 0 mm 1 mps 737 mmHg 64%
20:00 +23°C° 0 mm 0 mps 738 mmHg 65%
21:00 +22°C° 0 mm 0 mps 738 mmHg 66%
22:00 +22°C° 0 mm 0 mps 737 mmHg 66%
23:00 +22°C° 0 mm 0 mps 737 mmHg 67%

4 November, Wednesday

Time Temperature Precipitation Wind Pressure Humidity
00:00 +23°C° 0 mm 1 mps 737 mmHg 67%
01:00 +23°C° 0 mm 1 mps 737 mmHg 67%
02:00 +23°C° 0 mm 1 mps 736 mmHg 68%
03:00 +22°C° 0 mm 1 mps 736 mmHg 67%
04:00 +22°C° 0 mm 1 mps 737 mmHg 67%
05:00 +21°C° 0 mm 1 mps 737 mmHg 66%
06:00 +22°C° 0 mm 1 mps 737 mmHg 61%
07:00 +24°C° 0 mm 1 mps 738 mmHg 56%
08:00 +25°C° 0 mm 1 mps 739 mmHg 50%
09:00 +26°C° 0 mm 2 mps 738 mmHg 48%
10:00 +28°C° 0 mm 2 mps 738 mmHg 45%
11:00 +29°C° 0 mm 2 mps 738 mmHg 43%
12:00 +30°C° 0 mm 2 mps 737 mmHg 42%
13:00 +31°C° 0 mm 2 mps 737 mmHg 42%
14:00 +31°C° 0 mm 2 mps 736 mmHg 41%
15:00 +30°C° 0 mm 1 mps 736 mmHg 47%
16:00 +28°C° 0 mm 1 mps 736 mmHg 52%
17:00 +27°C° 0 mm 1 mps 736 mmHg 58%
18:00 +26°C° 0 mm 1 mps 736 mmHg 58%
19:00 +23°C° 0 mm 0 mps 737 mmHg 59%
20:00 +22°C° 0 mm 0 mps 737 mmHg 60%
21:00 +22°C° 0 mm 0 mps 737 mmHg 61%
22:00 +22°C° 0 mm 0 mps 737 mmHg 62%
23:00 +21°C° 0 mm 0 mps 737 mmHg 63%

5 November, Thursday

Time Temperature Precipitation Wind Pressure Humidity
00:00 +21°C° 0 mm 0 mps 737 mmHg 64%
01:00 +21°C° 0 mm 0 mps 736 mmHg 65%
02:00 +20°C° 0 mm 0 mps 736 mmHg 66%
03:00 +20°C° 0 mm 0 mps 736 mmHg 67%
04:00 +21°C° 0 mm 1 mps 736 mmHg 69%
05:00 +21°C° 0 mm 1 mps 737 mmHg 71%
06:00 +22°C° 0 mm 1 mps 737 mmHg 66%
07:00 +24°C° 0 mm 1 mps 738 mmHg 62%
08:00 +25°C° 0 mm 1 mps 739 mmHg 58%
09:00 +27°C° 0 mm 1 mps 738 mmHg 51%
10:00 +29°C° 0 mm 2 mps 738 mmHg 45%
11:00 +30°C° 0 mm 2 mps 738 mmHg 38%
12:00 +31°C° 0 mm 2 mps 737 mmHg 38%
13:00 +31°C° 0 mm 2 mps 737 mmHg 37%
14:00 +32°C° 0 mm 2 mps 736 mmHg 36%
15:00 +30°C° 0 mm 2 mps 736 mmHg 41%
16:00 +28°C° 0 mm 2 mps 736 mmHg 46%
17:00 +26°C° 0 mm 1 mps 736 mmHg 51%
18:00 +26°C° 0 mm 1 mps 737 mmHg 51%
19:00 +25°C° 0 mm 1 mps 737 mmHg 52%
20:00 +24°C° 0 mm 1 mps 738 mmHg 52%
21:00 +23°C° 0 mm 1 mps 738 mmHg 52%
22:00 +21°C° 0 mm 0 mps 738 mmHg 52%
23:00 +21°C° 0 mm 0 mps 738 mmHg 52%
Show more

We Need Your Consent

Meteoprog and our Service Providers may store and access personal data such as cookies, device identifiers or other similar technologies on your device and process such data to personalise content and ads, as well as provide social media features and to analyse the traffic.

  • Store and/or access information on your device

    Cookies, device identifiers or other information can be stored or accessed on your device for the purposes indicated above.

  • Personalised ads and content, ad and content measurement, audience insights, and products development

    Ads and content can be personalised based on a profile. More data can be added to better personalise ads and content. Ad and content performance can be measured. Insights about the audience who saw the ads and content can be derived. Such data can be used to develop or improve user’s experience, systems and software.

By clicking ‘I Agree’ you will allow the use of indicated cookies, device identifiers, web beacons or other similar technologies. Your settings can be changed in the browser on your device.

For certain purposes, legitimate interests may be relied on, rather than consent. You can read more about this in our Privacy and Cookie Policy.